Location: Dover
(48.8500°N, 53.9833°W)
Time: 17:09:55
(UTC+00:00)

MOS 1 Rocket - Pass Details

Date: 14 November 2025
Orbit: 610 x 813 km, 97.4° (Epoch: 13 December)

Event Time Altitude Azimuth Distance (km) Brightness Sun altitude
Rises 21:10:58 0° 155° (SSE) 2,865 6.4 -12.3°
Reaches altitude 10° 21:13:07 10° 152° (SSE) 1,973 5.5 -12.6°
Maximum altitude 21:17:20 61° 73° (ENE) 719 3.1 -13.3°
Drops below altitude 10° 21:21:43 10° 353° (N) 2,059 5.7 -14.0°
Sets 21:24:01 0° 350° (N) 3,003 6.6 -14.4°
